EST,Max TemperatureF,Mean TemperatureF,Min TemperatureF,Max Dew PointF,MeanDew PointF,Min DewpointF,Max Humidity, Mean Humidity, Min Humidity, Max Sea Level PressureIn, Mean Sea Level PressureIn, Min Sea Level PressureIn, Max VisibilityMiles, Mean VisibilityMiles, Min VisibilityMiles, Max Wind SpeedMPH, Mean Wind SpeedMPH, Max Gust SpeedMPH,PrecipitationIn, CloudCover, Events, WindDirDegrees
2012-11-1,43,40,37,40,37,30,100,90,65,29.78,29.73,29.67,10,8,4,14,10,21,0.08,7,Rain,280
2012-11-2,41,39,37,34,30,28,81,68,60,30.06,29.90,29.77,10,10,10,16,10,21,0.01,8,Rain,323
2012-11-3,42,38,35,33,31,28,82,71,63,30.18,30.14,30.07,10,10,10,10,8,,0.00,8,,331
2012-11-4,39,38,37,32,30,27,82,71,60,30.19,30.16,30.14,10,10,10,10,5,,0.00,8,,346
2012-11-5,41,39,36,32,30,26,81,72,55,30.21,30.18,30.14,10,10,10,10,5,,0.00,8,,44
2012-11-6,45,38,30,30,27,24,88,71,48,30.17,30.08,29.98,10,10,10,9,4,,0.00,3,,118
2012-11-7,46,36,27,32,28,24,89,73,46,30.12,30.04,29.96,10,10,9,16,3,22,0.00,2,,49
2012-11-8,44,37,30,34,29,27,93,78,58,30.23,30.17,30.11,10,10,7,12,3,,0.00,3,,345
2012-11-9,54,42,30,41,34,27,92,72,53,30.26,30.19,30.13,10,7,3,10,5,,0.00,4,Rain-Thunderstorm,207
2012-11-10,64,55,46,45,43,41,90,67,48,30.20,30.15,30.10,10,9,6,14,7,,0.05,3,Rain,181
2012-11-11,68,58,48,41,37,33,64,45,30,30.25,30.16,30.05,10,10,10,24,12,30,0.00,0,,191
2012-11-12,63,48,33,54,41,24,90,74,32,30.36,30.09,29.99,10,8,2,24,17,38,0.44,6,Rain,249
2012-11-13,36,34,32,27,25,24,75,68,62,30.57,30.47,30.36,10,10,10,12,8,,0.00,8,,259
2012-11-14,39,34,30,27,26,24,80,69,57,30.61,30.53,30.44,10,10,10,8,3,,0.00,5,,121
2012-11-15,45,35,25,33,29,22,96,80,60,30.43,30.38,30.33,10,9,4,9,2,,0.00,1,Snow,326
2012-11-16,48,38,28,38,31,27,100,86,56,30.53,30.45,30.36,10,5,0,8,3,,0.00,2,Fog-Snow,322
2012-11-17,55,40,26,37,30,24,100,81,37,30.64,30.57,30.51,10,5,0,7,1,,0.00,0,Fog-Rain,80
2012-11-18,55,42,28,34,30,26,100,79,37,30.55,30.51,30.44,10,6,0,7,3,,0.00,0,Fog-Rain-Snow,134
2012-11-19,55,42,28,34,31,25,85,69,40,30.43,30.34,30.22,10,10,9,6,2,,0.00,0,,164
2012-11-20,57,47,37,38,35,32,83,68,42,30.20,30.15,30.10,10,9,6,6,2,,0.00,5,,157
2012-11-21,59,46,32,40,35,30,96,76,38,30.25,30.21,30.15,10,7,2,5,1,,0.00,1,,223
2012-11-22,62,48,34,41,37,30,86,65,43,30.22,30.12,29.93,10,8,5,16,5,21,0.00,1,,200
2012-11-23,55,42,30,47,32,23,86,71,55,30.04,29.91,29.81,10,9,2,25,18,40,0.04,7,Rain-Snow,262
2012-11-24,32,31,30,25,22,19,80,68,59,30.13,30.08,30.03,10,10,7,18,13,24,0.00,8,Snow,279
2012-11-25,39,34,28,26,23,19,88,69,51,30.08,29.98,29.87,10,10,8,18,10,22,0.00,5,Snow,250
2012-11-26,39,32,26,29,26,23,89,72,55,30.29,30.18,30.03,10,9,5,12,6,,0.00,5,,286
2012-11-27,34,29,23,27,22,18,85,70,56,30.36,30.31,30.26,10,10,5,10,5,,0.00,6,Snow,311
2012-11-28,37,29,21,24,22,17,82,71,57,30.37,30.33,30.28,10,10,8,14,8,23,0.00,3,,253
2012-11-29,46,36,27,26,22,20,81,59,34,30.37,30.31,30.26,10,10,8,18,8,24,0.00,0,,218
2012-11-30,50,42,34,36,29,23,89,63,46,30.27,30.22,30.17,10,10,5,8,5,,0.00,5,,153